カタログに戻る

STARLINK-31726

運用中通信VLEO
NORAD 59739·PAYLOAD·🇺🇸 United States

打ち上げ May 13, 2024 から Cape Canaveral Space Force Station

Loading…

次のパス (今後24時間)

TLE

最新Source: CelesTrak SupGP

元期: Sep 15, 2026, 02:37 UTC

1 59739C 24090K   26258.10951389 -.00048623  00000+0 -17611-2 0  2587
2 59739  42.9996 193.4470 0000905 274.9294  61.6813 15.27603714    15

AllMySatでSTARLINK-31726をリアルタイム追跡

Download on the App Store